Time,TemperatureF,DewpointF,PressureIn,WindDirection,WindDirectionDegrees,WindSpeedMPH,WindSpeedGustMPH,Humidity,HourlyPrecipIn,Conditions,Clouds,dailyrainin,SoftwareType,DateUTC
2013-03-11 00:00:00,39.6,32.0,29.54,SSE,157,2.0,6.0,70,0.00,,,0.00,Rainwise IP-100,2013-03-11 04:00:00,
2013-03-11 00:05:00,39.4,31.0,29.54,South,180,5.0,7.0,70,0.00,,,0.00,Rainwise IP-100,2013-03-11 04:05:00,
2013-03-11 00:06:00,39.3,31.0,29.54,South,180,4.0,7.0,70,0.00,,,0.00,Rainwise IP-100,2013-03-11 04:06:00,
2013-03-11 00:11:00,39.0,31.0,29.54,SSE,157,4.0,8.0,70,0.00,,,0.00,Rainwise IP-100,2013-03-11 04:11:00,
2013-03-11 00:16:00,38.8,31.0,29.54,SSE,157,0.0,6.0,71,0.00,,,0.00,Rainwise IP-100,2013-03-11 04:16:00,
2013-03-11 00:22:00,38.7,31.0,29.54,SW,225,4.0,8.0,72,0.00,,,0.00,Rainwise IP-100,2013-03-11 04:22:00,
2013-03-11 00:27:00,38.6,32.0,29.54,SSE,157,3.0,7.0,73,0.00,,,0.00,Rainwise IP-100,2013-03-11 04:27:00,
2013-03-11 00:32:00,38.4,31.0,29.55,SSE,157,3.0,8.0,73,0.00,,,0.00,Rainwise IP-100,2013-03-11 04:32:00,
2013-03-11 00:36:00,38.4,31.0,29.54,South,180,2.0,8.0,73,0.00,,,0.00,Rainwise IP-100,2013-03-11 04:36:00,
2013-03-11 00:41:00,38.3,31.0,29.54,SSE,157,2.0,9.0,75,0.00,,,0.00,Rainwise IP-100,2013-03-11 04:41:00,
2013-03-11 00:46:00,38.5,32.0,29.55,SW,225,2.0,6.0,75,0.00,,,0.00,Rainwise IP-100,2013-03-11 04:46:00,
2013-03-11 00:51:00,38.1,31.0,29.55,SSE,157,4.0,7.0,76,0.00,,,0.00,Rainwise IP-100,2013-03-11 04:51:00,
2013-03-11 00:56:00,38.2,31.0,29.55,South,180,0.0,7.0,75,0.00,,,0.00,Rainwise IP-100,2013-03-11 04:56:00,
2013-03-11 01:01:00,38.1,31.0,29.55,South,180,2.0,7.0,75,0.00,,,0.00,Rainwise IP-100,2013-03-11 05:01:00,
2013-03-11 01:07:00,37.8,32.0,29.54,SW,225,3.0,7.0,77,0.00,,,0.00,Rainwise IP-100,2013-03-11 05:07:00,
2013-03-11 01:12:00,37.7,32.0,29.55,South,180,3.0,7.0,77,0.00,,,0.00,Rainwise IP-100,2013-03-11 05:12:00,
2013-03-11 01:17:00,37.6,32.0,29.55,SW,225,4.0,8.0,78,0.00,,,0.00,Rainwise IP-100,2013-03-11 05:17:00,
2013-03-11 01:22:00,37.4,31.0,29.55,SSE,157,1.0,7.0,79,0.00,,,0.00,Rainwise IP-100,2013-03-11 05:22:00,
2013-03-11 01:27:00,37.3,32.0,29.56,SW,225,3.0,8.0,82,0.00,,,0.00,Rainwise IP-100,2013-03-11 05:27:00,
2013-03-11 01:32:00,37.2,32.0,29.55,SSW,202,4.0,6.0,81,0.00,,,0.00,Rainwise IP-100,2013-03-11 05:32:00,
2013-03-11 01:37:00,37.1,32.0,29.55,South,180,2.0,7.0,81,0.00,,,0.00,Rainwise IP-100,2013-03-11 05:37:00,
2013-03-11 01:42:00,36.9,32.0,29.56,SSW,202,2.0,5.0,81,0.00,,,0.00,Rainwise IP-100,2013-03-11 05:42:00,
2013-03-11 01:47:00,36.9,32.0,29.56,South,180,4.0,7.0,81,0.00,,,0.00,Rainwise IP-100,2013-03-11 05:47:00,
2013-03-11 01:52:00,36.9,32.0,29.55,South,180,0.0,7.0,81,0.00,,,0.00,Rainwise IP-100,2013-03-11 05:52:00,
2013-03-11 01:57:00,36.9,32.0,29.55,South,180,4.0,5.0,81,0.00,,,0.00,Rainwise IP-100,2013-03-11 05:57:00,
2013-03-11 02:02:00,36.7,32.0,29.55,South,180,5.0,6.0,82,0.00,,,0.00,Rainwise IP-100,2013-03-11 06:02:00,
2013-03-11 02:08:00,36.5,32.0,29.55,SSE,157,3.0,5.0,84,0.00,,,0.00,Rainwise IP-100,2013-03-11 06:08:00,
2013-03-11 02:13:00,36.3,31.0,29.55,South,180,0.0,5.0,82,0.00,,,0.00,Rainwise IP-100,2013-03-11 06:13:00,
2013-03-11 02:18:00,36.2,31.0,29.54,ENE,67,2.0,4.0,82,0.00,,,0.00,Rainwise IP-100,2013-03-11 06:18:00,
2013-03-11 02:23:00,35.9,31.0,29.53,South,180,5.0,6.0,82,0.00,,,0.00,Rainwise IP-100,2013-03-11 06:23:00,
2013-03-11 02:28:00,35.7,32.0,29.54,SSE,157,4.0,5.0,85,0.00,,,0.00,Rainwise IP-100,2013-03-11 06:28:00,
2013-03-11 02:33:00,35.1,31.0,29.53,SSE,157,3.0,6.0,85,0.00,,,0.00,Rainwise IP-100,2013-03-11 06:33:00,
2013-03-11 02:38:00,34.9,31.0,29.52,SSE,157,2.0,7.0,87,0.00,,,0.00,Rainwise IP-100,2013-03-11 06:38:00,
2013-03-11 02:43:00,34.8,31.0,29.53,South,180,6.0,6.0,87,0.00,,,0.00,Rainwise IP-100,2013-03-11 06:43:00,
2013-03-11 02:48:00,34.7,31.0,29.53,South,180,1.0,6.0,87,0.00,,,0.00,Rainwise IP-100,2013-03-11 06:48:00,
2013-03-11 02:53:00,34.5,31.0,29.53,NNE,22,1.0,5.0,87,0.00,,,0.00,Rainwise IP-100,2013-03-11 06:53:00,
2013-03-11 02:58:00,34.4,31.0,29.53,South,180,3.0,6.0,87,0.00,,,0.00,Rainwise IP-100,2013-03-11 06:58:00,
2013-03-11 03:03:00,34.2,32.0,29.52,SSE,157,1.0,5.0,89,0.00,,,0.00,Rainwise IP-100,2013-03-11 07:03:00,
2013-03-11 03:09:00,33.9,32.0,29.52,SSW,202,0.0,5.0,89,0.00,,,0.00,Rainwise IP-100,2013-03-11 07:09:00,
2013-03-11 03:14:00,33.7,32.0,29.52,SSE,157,0.0,4.0,89,0.00,,,0.00,Rainwise IP-100,2013-03-11 07:14:00,
2013-03-11 03:19:00,33.4,31.0,29.52,SSE,157,0.0,5.0,89,0.00,,,0.00,Rainwise IP-100,2013-03-11 07:19:00,
2013-03-11 03:24:00,33.3,31.0,29.51,South,180,3.0,6.0,89,0.00,,,0.00,Rainwise IP-100,2013-03-11 07:24:00,
2013-03-11 03:29:00,33.1,31.0,29.51,SW,225,2.0,5.0,91,0.00,,,0.00,Rainwise IP-100,2013-03-11 07:29:00,
2013-03-11 03:34:00,33.0,31.0,29.52,South,180,1.0,5.0,91,0.00,,,0.00,Rainwise IP-100,2013-03-11 07:34:00,
2013-03-11 03:39:00,33.3,31.0,29.52,South,180,6.0,6.0,90,0.00,,,0.00,Rainwise IP-100,2013-03-11 07:39:00,
2013-03-11 03:45:00,33.6,32.0,29.51,South,180,5.0,7.0,92,0.00,,,0.00,Rainwise IP-100,2013-03-11 07:45:00,
2013-03-11 03:50:00,33.5,32.0,29.51,SSW,202,3.0,6.0,92,0.00,,,0.00,Rainwise IP-100,2013-03-11 07:50:00,
2013-03-11 03:55:00,33.5,32.0,29.51,South,180,1.0,4.0,92,0.00,,,0.00,Rainwise IP-100,2013-03-11 07:55:00,
2013-03-11 04:00:00,33.6,32.0,29.51,SSW,202,1.0,7.0,92,0.00,,,0.00,Rainwise IP-100,2013-03-11 08:00:00,
2013-03-11 04:05:00,33.6,32.0,29.51,SSE,157,0.0,6.0,92,0.00,,,0.00,Rainwise IP-100,2013-03-11 08:05:00,
2013-03-11 04:10:00,33.6,32.0,29.50,SSE,157,2.0,9.0,92,0.00,,,0.00,Rainwise IP-100,2013-03-11 08:10:00,
2013-03-11 04:15:00,33.5,32.0,29.50,NE,45,3.0,4.0,92,0.00,,,0.00,Rainwise IP-100,2013-03-11 08:15:00,
2013-03-11 04:21:00,33.5,33.0,29.50,WNW,292,1.0,6.0,93,0.00,,,0.00,Rainwise IP-100,2013-03-11 08:21:00,
2013-03-11 04:26:00,33.5,33.0,29.49,SSE,157,0.0,6.0,94,0.00,,,0.00,Rainwise IP-100,2013-03-11 08:26:00,
2013-03-11 04:31:00,33.5,33.0,29.49,SSW,202,4.0,9.0,93,0.00,,,0.00,Rainwise IP-100,2013-03-11 08:31:00,
2013-03-11 04:36:00,33.5,33.0,29.49,SSE,157,4.0,7.0,93,0.00,,,0.00,Rainwise IP-100,2013-03-11 08:36:00,
2013-03-11 04:41:00,33.5,33.0,29.49,SE,135,2.0,7.0,93,0.00,,,0.00,Rainwise IP-100,2013-03-11 08:41:00,
2013-03-11 04:46:00,33.7,32.0,29.48,SSE,157,1.0,6.0,92,0.00,,,0.00,Rainwise IP-100,2013-03-11 08:46:00,
2013-03-11 04:51:00,33.7,32.0,29.48,SSE,157,3.0,4.0,92,0.00,,,0.00,Rainwise IP-100,2013-03-11 08:51:00,
2013-03-11 04:57:00,33.7,32.0,29.48,SSE,157,4.0,5.0,92,0.00,,,0.00,Rainwise IP-100,2013-03-11 08:57:00,
2013-03-11 05:02:00,33.5,33.0,29.49,SSW,202,0.0,4.0,93,0.00,,,0.00,Rainwise IP-100,2013-03-11 09:02:00,
2013-03-11 05:07:00,33.5,33.0,29.48,SSW,202,1.0,5.0,94,0.00,,,0.00,Rainwise IP-100,2013-03-11 09:07:00,
2013-03-11 05:12:00,33.5,33.0,29.49,ESE,112,2.0,7.0,94,0.00,,,0.00,Rainwise IP-100,2013-03-11 09:12:00,
2013-03-11 05:17:00,33.4,32.0,29.49,SW,225,4.0,6.0,94,0.00,,,0.00,Rainwise IP-100,2013-03-11 09:17:00,
2013-03-11 05:22:00,33.4,32.0,29.50,South,180,4.0,7.0,94,0.00,,,0.00,Rainwise IP-100,2013-03-11 09:22:00,
2013-03-11 05:27:00,33.4,32.0,29.50,South,180,3.0,6.0,94,0.00,,,0.00,Rainwise IP-100,2013-03-11 09:27:00,
2013-03-11 05:33:00,33.3,32.0,29.49,SSW,202,3.0,6.0,94,0.00,,,0.00,Rainwise IP-100,2013-03-11 09:33:00,
2013-03-11 05:38:00,33.3,32.0,29.49,SW,225,0.0,6.0,94,0.00,,,0.00,Rainwise IP-100,2013-03-11 09:38:00,
2013-03-11 05:43:00,33.2,32.0,29.50,SSE,157,3.0,6.0,94,0.00,,,0.00,Rainwise IP-100,2013-03-11 09:43:00,
2013-03-11 05:48:00,33.2,32.0,29.49,SSE,157,3.0,6.0,94,0.00,,,0.00,Rainwise IP-100,2013-03-11 09:48:00,
2013-03-11 05:53:00,33.2,32.0,29.49,SE,135,1.0,7.0,94,0.00,,,0.00,Rainwise IP-100,2013-03-11 09:53:00,
2013-03-11 05:58:00,33.3,32.0,29.50,ENE,67,2.0,6.0,94,0.00,,,0.00,Rainwise IP-100,2013-03-11 09:58:00,
2013-03-11 06:03:00,33.3,32.0,29.49,South,180,3.0,5.0,94,0.00,,,0.00,Rainwise IP-100,2013-03-11 10:03:00,
2013-03-11 06:08:00,33.3,32.0,29.49,SSE,157,7.0,7.0,93,0.00,,,0.00,Rainwise IP-100,2013-03-11 10:08:00,
2013-03-11 06:13:00,33.0,32.0,29.49,South,180,3.0,7.0,94,0.00,,,0.00,Rainwise IP-100,2013-03-11 10:13:00,
2013-03-11 06:19:00,33.0,32.0,29.49,South,180,3.0,7.0,94,0.00,,,0.00,Rainwise IP-100,2013-03-11 10:19:00,
2013-03-11 06:24:00,33.0,32.0,29.49,SSE,157,5.0,7.0,94,0.00,,,0.00,Rainwise IP-100,2013-03-11 10:24:00,
2013-03-11 06:29:00,32.9,32.0,29.49,South,180,0.0,6.0,94,0.00,,,0.00,Rainwise IP-100,2013-03-11 10:29:00,
2013-03-11 06:34:00,32.9,32.0,29.49,SSW,202,2.0,8.0,94,0.00,,,0.00,Rainwise IP-100,2013-03-11 10:34:00,
2013-03-11 06:39:00,32.9,32.0,29.49,SW,225,5.0,7.0,94,0.00,,,0.00,Rainwise IP-100,2013-03-11 10:39:00,
2013-03-11 06:44:00,32.9,32.0,29.49,South,180,1.0,8.0,95,0.00,,,0.00,Rainwise IP-100,2013-03-11 10:44:00,
2013-03-11 06:49:00,32.8,32.0,29.49,WSW,247,6.0,6.0,95,0.00,,,0.00,Rainwise IP-100,2013-03-11 10:49:00,
2013-03-11 06:54:00,32.8,32.0,29.49,South,180,3.0,9.0,96,0.00,,,0.00,Rainwise IP-100,2013-03-11 10:54:00,
2013-03-11 06:59:00,32.8,32.0,29.49,SSW,202,2.0,7.0,95,0.00,,,0.00,Rainwise IP-100,2013-03-11 10:59:00,
2013-03-11 07:05:00,32.8,32.0,29.49,South,180,4.0,6.0,95,0.00,,,0.00,Rainwise IP-100,2013-03-11 11:05:00,
2013-03-11 07:10:00,32.8,32.0,29.49,SW,225,2.0,6.0,94,0.00,,,0.00,Rainwise IP-100,2013-03-11 11:10:00,
2013-03-11 07:15:00,32.8,32.0,29.49,SE,135,5.0,6.0,94,0.00,,,0.00,Rainwise IP-100,2013-03-11 11:15:00,
2013-03-11 07:20:00,32.9,32.0,29.48,SE,135,2.0,6.0,94,0.00,,,0.00,Rainwise IP-100,2013-03-11 11:20:00,
2013-03-11 07:25:00,32.9,32.0,29.48,SSE,157,2.0,6.0,94,0.00,,,0.00,Rainwise IP-100,2013-03-11 11:25:00,
2013-03-11 07:30:00,32.8,32.0,29.48,SSW,202,3.0,7.0,95,0.00,,,0.00,Rainwise IP-100,2013-03-11 11:30:00,
2013-03-11 07:35:00,32.8,32.0,29.48,SW,225,0.0,6.0,95,0.00,,,0.00,Rainwise IP-100,2013-03-11 11:35:00,
2013-03-11 07:40:00,32.8,32.0,29.49,SSW,202,3.0,6.0,95,0.00,,,0.00,Rainwise IP-100,2013-03-11 11:40:00,
2013-03-11 07:46:00,32.8,32.0,29.49,NE,45,0.0,4.0,95,0.00,,,0.00,Rainwise IP-100,2013-03-11 11:46:00,
2013-03-11 07:51:00,32.9,32.0,29.48,South,180,1.0,6.0,95,0.00,,,0.00,Rainwise IP-100,2013-03-11 11:51:00,
2013-03-11 07:56:00,32.9,32.0,29.48,SSE,157,4.0,9.0,94,0.00,,,0.00,Rainwise IP-100,2013-03-11 11:56:00,
2013-03-11 08:01:00,33.1,32.0,29.48,SSE,157,6.0,7.0,94,0.00,,,0.00,Rainwise IP-100,2013-03-11 12:01:00,
2013-03-11 08:06:00,33.2,32.0,29.48,SSW,202,5.0,7.0,94,0.00,,,0.00,Rainwise IP-100,2013-03-11 12:06:00,
2013-03-11 08:11:00,33.3,32.0,29.49,SSE,157,5.0,9.0,93,0.00,,,0.00,Rainwise IP-100,2013-03-11 12:11:00,
2013-03-11 08:17:00,33.3,32.0,29.49,SSE,157,2.0,10.0,94,0.00,,,0.00,Rainwise IP-100,2013-03-11 12:17:00,
2013-03-11 08:22:00,33.3,32.0,29.49,SSE,157,3.0,9.0,93,0.00,,,0.00,Rainwise IP-100,2013-03-11 12:22:00,
2013-03-11 08:27:00,33.7,32.0,29.49,SSE,157,3.0,6.0,92,0.00,,,0.00,Rainwise IP-100,2013-03-11 12:27:00,
2013-03-11 08:32:00,33.8,32.0,29.49,SSE,157,2.0,7.0,92,0.00,,,0.00,Rainwise IP-100,2013-03-11 12:32:00,
2013-03-11 08:37:00,33.9,32.0,29.49,SW,225,3.0,6.0,92,0.00,,,0.00,Rainwise IP-100,2013-03-11 12:37:00,
2013-03-11 08:42:00,33.8,32.0,29.49,WSW,247,3.0,7.0,92,0.00,,,0.00,Rainwise IP-100,2013-03-11 12:42:00,
2013-03-11 08:47:00,33.9,32.0,29.48,SE,135,3.0,6.0,92,0.00,,,0.00,Rainwise IP-100,2013-03-11 12:47:00,
2013-03-11 08:52:00,34.0,32.0,29.48,South,180,4.0,7.0,92,0.00,,,0.00,Rainwise IP-100,2013-03-11 12:52:00,
2013-03-11 08:58:00,34.1,32.0,29.48,West,270,2.0,7.0,92,0.00,,,0.00,Rainwise IP-100,2013-03-11 12:58:00,
2013-03-11 09:03:00,33.9,32.0,29.48,SW,225,3.0,7.0,92,0.00,,,0.00,Rainwise IP-100,2013-03-11 13:03:00,
2013-03-11 09:08:00,33.9,32.0,29.49,SW,225,6.0,8.0,92,0.00,,,0.00,Rainwise IP-100,2013-03-11 13:08:00,
2013-03-11 09:13:00,34.2,32.0,29.49,SSW,202,5.0,8.0,92,0.00,,,0.00,Rainwise IP-100,2013-03-11 13:13:00,
2013-03-11 09:18:00,34.2,32.0,29.49,West,270,2.0,9.0,91,0.00,,,0.00,Rainwise IP-100,2013-03-11 13:18:00,
2013-03-11 09:23:00,34.3,32.0,29.49,SSE,157,5.0,7.0,91,0.00,,,0.00,Rainwise IP-100,2013-03-11 13:23:00,
2013-03-11 09:28:00,35.3,32.0,29.49,SSE,157,3.0,9.0,90,0.00,,,0.00,Rainwise IP-100,2013-03-11 13:28:00,
2013-03-11 09:33:00,36.5,33.0,29.49,SSE,157,4.0,9.0,88,0.00,,,0.00,Rainwise IP-100,2013-03-11 13:33:00,
2013-03-11 09:38:00,36.9,33.0,29.49,SSE,157,4.0,10.0,86,0.00,,,0.00,Rainwise IP-100,2013-03-11 13:38:00,
2013-03-11 09:43:00,37.5,33.0,29.50,SSE,157,6.0,9.0,83,0.00,,,0.00,Rainwise IP-100,2013-03-11 13:43:00,
2013-03-11 09:49:00,37.7,33.0,29.50,SSE,157,4.0,9.0,81,0.00,,,0.00,Rainwise IP-100,2013-03-11 13:49:00,
2013-03-11 09:54:00,37.8,33.0,29.50,SSW,202,5.0,9.0,81,0.00,,,0.00,Rainwise IP-100,2013-03-11 13:54:00,
2013-03-11 09:59:00,37.6,32.0,29.50,SSE,157,2.0,12.0,80,0.00,,,0.00,Rainwise IP-100,2013-03-11 13:59:00,
2013-03-11 10:04:00,37.4,32.0,29.50,SSE,157,6.0,10.0,81,0.00,,,0.00,Rainwise IP-100,2013-03-11 14:04:00,
2013-03-11 10:09:00,36.9,32.0,29.51,SW,225,6.0,9.0,82,0.00,,,0.00,Rainwise IP-100,2013-03-11 14:09:00,
2013-03-11 10:14:00,37.0,32.0,29.51,East,90,4.0,9.0,82,0.00,,,0.00,Rainwise IP-100,2013-03-11 14:14:00,
2013-03-11 10:19:00,36.9,32.0,29.50,South,180,4.0,13.0,82,0.00,,,0.00,Rainwise IP-100,2013-03-11 14:19:00,
2013-03-11 10:24:00,36.9,32.0,29.51,SE,135,7.0,10.0,83,0.00,,,0.00,Rainwise IP-100,2013-03-11 14:24:00,
2013-03-11 10:30:00,36.9,32.0,29.50,South,180,6.0,9.0,82,0.00,,,0.00,Rainwise IP-100,2013-03-11 14:30:00,
2013-03-11 10:35:00,37.2,32.0,29.50,WSW,247,5.0,7.0,82,0.00,,,0.00,Rainwise IP-100,2013-03-11 14:35:00,
2013-03-11 10:40:00,37.5,33.0,29.50,SSE,157,5.0,9.0,81,0.00,,,0.00,Rainwise IP-100,2013-03-11 14:40:00,
2013-03-11 10:45:00,38.0,33.0,29.50,SW,225,4.0,6.0,81,0.00,,,0.00,Rainwise IP-100,2013-03-11 14:45:00,
2013-03-11 10:50:00,38.6,33.0,29.51,South,180,1.0,6.0,80,0.00,,,0.00,Rainwise IP-100,2013-03-11 14:50:00,
2013-03-11 10:55:00,38.8,33.0,29.51,South,180,6.0,7.0,78,0.00,,,0.00,Rainwise IP-100,2013-03-11 14:55:00,
2013-03-11 11:00:00,38.8,33.0,29.51,SSE,157,3.0,7.0,78,0.00,,,0.00,Rainwise IP-100,2013-03-11 15:00:00,
2013-03-11 11:05:00,38.9,33.0,29.50,SSW,202,3.0,8.0,78,0.00,,,0.00,Rainwise IP-100,2013-03-11 15:05:00,
2013-03-11 11:10:00,39.5,33.0,29.50,SSE,157,4.0,6.0,76,0.00,,,0.00,Rainwise IP-100,2013-03-11 15:10:00,
2013-03-11 11:15:00,39.9,33.0,29.50,SSE,157,4.0,6.0,75,0.00,,,0.00,Rainwise IP-100,2013-03-11 15:15:00,
2013-03-11 11:21:00,40.4,33.0,29.49,South,180,10.0,10.0,75,0.00,,,0.00,Rainwise IP-100,2013-03-11 15:21:00,
2013-03-11 11:26:00,39.9,33.0,29.49,SSE,157,6.0,10.0,75,0.00,,,0.00,Rainwise IP-100,2013-03-11 15:26:00,
2013-03-11 11:31:00,39.9,33.0,29.49,North,360,2.0,10.0,75,0.00,,,0.00,Rainwise IP-100,2013-03-11 15:31:00,
2013-03-11 11:36:00,39.9,33.0,29.49,ESE,112,4.0,10.0,75,0.00,,,0.00,Rainwise IP-100,2013-03-11 15:36:00,
2013-03-11 11:41:00,40.5,35.0,29.49,South,180,3.0,10.0,75,0.00,,,0.00,Rainwise IP-100,2013-03-11 15:41:00,
2013-03-11 11:47:00,40.6,33.0,29.49,South,180,1.0,9.0,74,0.00,,,0.00,Rainwise IP-100,2013-03-11 15:47:00,
2013-03-11 11:52:00,41.1,33.0,29.50,South,180,6.0,10.0,72,0.00,,,0.00,Rainwise IP-100,2013-03-11 15:52:00,
2013-03-11 11:57:00,41.4,33.0,29.50,WSW,247,0.0,10.0,73,0.00,,,0.00,Rainwise IP-100,2013-03-11 15:57:00,
2013-03-11 12:02:00,41.6,33.0,29.50,SW,225,4.0,10.0,71,0.00,,,0.00,Rainwise IP-100,2013-03-11 16:02:00,
2013-03-11 12:07:00,41.5,33.0,29.50,West,270,3.0,11.0,72,0.00,,,0.00,Rainwise IP-100,2013-03-11 16:07:00,
2013-03-11 12:12:00,41.6,33.0,29.49,South,180,7.0,10.0,72,0.00,,,0.00,Rainwise IP-100,2013-03-11 16:12:00,
2013-03-11 12:17:00,41.5,33.0,29.49,East,90,2.0,10.0,71,0.00,,,0.00,Rainwise IP-100,2013-03-11 16:17:00,
2013-03-11 12:23:00,41.6,33.0,29.50,SSW,202,4.0,9.0,71,0.00,,,0.00,Rainwise IP-100,2013-03-11 16:23:00,
2013-03-11 12:28:00,41.7,33.0,29.49,SW,225,3.0,9.0,71,0.00,,,0.00,Rainwise IP-100,2013-03-11 16:28:00,
2013-03-11 12:33:00,41.7,33.0,29.49,South,180,4.0,11.0,71,0.00,,,0.00,Rainwise IP-100,2013-03-11 16:33:00,
2013-03-11 12:38:00,41.9,33.0,29.49,South,180,4.0,9.0,71,0.00,,,0.00,Rainwise IP-100,2013-03-11 16:38:00,
2013-03-11 12:43:00,42.1,33.0,29.49,SSW,202,6.0,9.0,71,0.00,,,0.00,Rainwise IP-100,2013-03-11 16:43:00,
2013-03-11 12:48:00,42.4,33.0,29.49,SSE,157,4.0,7.0,71,0.00,,,0.00,Rainwise IP-100,2013-03-11 16:48:00,
2013-03-11 12:53:00,42.6,35.0,29.49,SSE,157,3.0,8.0,72,0.00,,,0.00,Rainwise IP-100,2013-03-11 16:53:00,
2013-03-11 12:58:00,42.6,35.0,29.49,SSE,157,6.0,11.0,71,0.00,,,0.00,Rainwise IP-100,2013-03-11 16:58:00,
2013-03-11 13:03:00,42.8,35.0,29.49,South,180,4.0,9.0,72,0.00,,,0.00,Rainwise IP-100,2013-03-11 17:03:00,
2013-03-11 13:09:00,43.2,35.0,29.49,South,180,3.0,9.0,71,0.00,,,0.00,Rainwise IP-100,2013-03-11 17:09:00,
2013-03-11 13:14:00,43.2,35.0,29.49,SSW,202,6.0,10.0,70,0.00,,,0.00,Rainwise IP-100,2013-03-11 17:14:00,
2013-03-11 13:19:00,43.3,35.0,29.49,SSW,202,1.0,7.0,71,0.00,,,0.00,Rainwise IP-100,2013-03-11 17:19:00,
2013-03-11 13:24:00,43.5,35.0,29.49,South,180,1.0,7.0,70,0.00,,,0.00,Rainwise IP-100,2013-03-11 17:24:00,
2013-03-11 13:29:00,43.6,35.0,29.48,SSE,157,2.0,9.0,69,0.00,,,0.00,Rainwise IP-100,2013-03-11 17:29:00,
2013-03-11 13:34:00,43.6,35.0,29.48,ESE,112,0.0,7.0,70,0.00,,,0.00,Rainwise IP-100,2013-03-11 17:34:00,
2013-03-11 13:39:00,43.3,35.0,29.48,SSE,157,2.0,9.0,70,0.00,,,0.00,Rainwise IP-100,2013-03-11 17:39:00,
2013-03-11 13:44:00,43.2,35.0,29.48,WSW,247,6.0,9.0,71,0.00,,,0.00,Rainwise IP-100,2013-03-11 17:44:00,
2013-03-11 13:49:00,43.2,35.0,29.48,South,180,2.0,10.0,71,0.00,,,0.00,Rainwise IP-100,2013-03-11 17:49:00,
2013-03-11 13:55:00,43.5,36.0,29.48,SE,135,3.0,9.0,71,0.00,,,0.00,Rainwise IP-100,2013-03-11 17:55:00,
2013-03-11 14:00:00,43.6,36.0,29.48,South,180,2.0,9.0,71,0.00,,,0.00,Rainwise IP-100,2013-03-11 18:00:00,
2013-03-11 14:05:00,43.6,36.0,29.48,South,180,3.0,8.0,71,0.00,,,0.00,Rainwise IP-100,2013-03-11 18:05:00,
2013-03-11 14:10:00,43.3,35.0,29.47,SSW,202,4.0,7.0,72,0.00,,,0.00,Rainwise IP-100,2013-03-11 18:10:00,
2013-03-11 14:15:00,43.2,35.0,29.47,WSW,247,3.0,9.0,72,0.00,,,0.00,Rainwise IP-100,2013-03-11 18:15:00,
2013-03-11 14:20:00,43.2,35.0,29.47,SSE,157,3.0,9.0,72,0.00,,,0.00,Rainwise IP-100,2013-03-11 18:20:00,
2013-03-11 14:25:00,43.0,35.0,29.47,SW,225,2.0,9.0,72,0.00,,,0.00,Rainwise IP-100,2013-03-11 18:25:00,
2013-03-11 14:30:00,43.1,35.0,29.47,SSW,202,3.0,7.0,73,0.00,,,0.00,Rainwise IP-100,2013-03-11 18:30:00,
2013-03-11 14:36:00,43.2,35.0,29.47,South,180,2.0,8.0,73,0.00,,,0.00,Rainwise IP-100,2013-03-11 18:36:00,
2013-03-11 14:41:00,43.4,35.0,29.46,South,180,6.0,7.0,72,0.00,,,0.00,Rainwise IP-100,2013-03-11 18:41:00,
2013-03-11 14:46:00,43.7,36.0,29.46,South,180,1.0,6.0,72,0.00,,,0.00,Rainwise IP-100,2013-03-11 18:46:00,
2013-03-11 14:51:00,43.9,36.0,29.46,SSE,157,6.0,6.0,72,0.00,,,0.00,Rainwise IP-100,2013-03-11 18:51:00,
2013-03-11 14:56:00,44.0,36.0,29.46,SW,225,6.0,6.0,72,0.00,,,0.00,Rainwise IP-100,2013-03-11 18:56:00,
2013-03-11 15:01:00,44.1,36.0,29.46,SSE,157,2.0,8.0,71,0.00,,,0.00,Rainwise IP-100,2013-03-11 19:01:00,
2013-03-11 15:06:00,44.2,36.0,29.46,South,180,3.0,6.0,72,0.00,,,0.00,Rainwise IP-100,2013-03-11 19:06:00,
2013-03-11 15:12:00,44.1,36.0,29.46,SE,135,4.0,7.0,71,0.00,,,0.00,Rainwise IP-100,2013-03-11 19:12:00,
2013-03-11 15:17:00,44.4,36.0,29.45,South,180,4.0,8.0,71,0.00,,,0.00,Rainwise IP-100,2013-03-11 19:17:00,
2013-03-11 15:22:00,44.5,36.0,29.46,SE,135,2.0,7.0,71,0.00,,,0.00,Rainwise IP-100,2013-03-11 19:22:00,
2013-03-11 15:27:00,44.5,36.0,29.46,South,180,3.0,6.0,71,0.00,,,0.00,Rainwise IP-100,2013-03-11 19:27:00,
2013-03-11 15:32:00,44.2,36.0,29.46,South,180,3.0,6.0,72,0.00,,,0.00,Rainwise IP-100,2013-03-11 19:32:00,
2013-03-11 15:37:00,44.1,36.0,29.46,SW,225,2.0,7.0,72,0.00,,,0.00,Rainwise IP-100,2013-03-11 19:37:00,
2013-03-11 15:42:00,44.2,36.0,29.46,South,180,3.0,7.0,72,0.00,,,0.00,Rainwise IP-100,2013-03-11 19:42:00,
2013-03-11 15:48:00,44.3,36.0,29.46,South,180,5.0,6.0,72,0.00,,,0.00,Rainwise IP-100,2013-03-11 19:48:00,
2013-03-11 15:53:00,44.4,36.0,29.45,SSW,202,2.0,7.0,72,0.00,,,0.00,Rainwise IP-100,2013-03-11 19:53:00,
2013-03-11 15:58:00,44.5,37.0,29.45,SSE,157,5.0,5.0,72,0.00,,,0.00,Rainwise IP-100,2013-03-11 19:58:00,
2013-03-11 16:03:00,44.4,36.0,29.45,South,180,2.0,9.0,72,0.00,,,0.00,Rainwise IP-100,2013-03-11 20:03:00,
2013-03-11 16:08:00,44.5,37.0,29.45,SSW,202,7.0,7.0,72,0.00,,,0.00,Rainwise IP-100,2013-03-11 20:08:00,
2013-03-11 16:13:00,44.7,37.0,29.45,ENE,67,1.0,7.0,72,0.00,,,0.00,Rainwise IP-100,2013-03-11 20:13:00,
2013-03-11 16:18:00,44.6,37.0,29.45,South,180,2.0,7.0,72,0.00,,,0.00,Rainwise IP-100,2013-03-11 20:18:00,
2013-03-11 16:24:00,44.5,37.0,29.44,SW,225,2.0,5.0,73,0.00,,,0.00,Rainwise IP-100,2013-03-11 20:24:00,
2013-03-11 16:29:00,44.5,37.0,29.44,South,180,2.0,7.0,73,0.00,,,0.00,Rainwise IP-100,2013-03-11 20:29:00,
2013-03-11 16:34:00,44.5,37.0,29.44,South,180,3.0,6.0,74,0.00,,,0.00,Rainwise IP-100,2013-03-11 20:34:00,
2013-03-11 16:39:00,44.8,37.0,29.44,South,180,3.0,6.0,73,0.00,,,0.00,Rainwise IP-100,2013-03-11 20:39:00,
2013-03-11 16:44:00,44.9,37.0,29.44,South,180,5.0,6.0,72,0.00,,,0.00,Rainwise IP-100,2013-03-11 20:44:00,
2013-03-11 16:49:00,44.9,37.0,29.43,SSW,202,6.0,8.0,72,0.00,,,0.00,Rainwise IP-100,2013-03-11 20:49:00,
2013-03-11 16:54:00,44.6,37.0,29.43,South,180,4.0,7.0,74,0.00,,,0.00,Rainwise IP-100,2013-03-11 20:54:00,
2013-03-11 16:59:00,44.6,37.0,29.43,SSE,157,5.0,8.0,74,0.00,,,0.00,Rainwise IP-100,2013-03-11 20:59:00,
2013-03-11 17:05:00,44.7,37.0,29.43,SSE,157,0.0,6.0,73,0.00,,,0.00,Rainwise IP-100,2013-03-11 21:05:00,
2013-03-11 17:10:00,44.7,37.0,29.43,SSE,157,1.0,9.0,73,0.00,,,0.00,Rainwise IP-100,2013-03-11 21:10:00,
2013-03-11 17:15:00,44.6,37.0,29.43,South,180,3.0,6.0,73,0.00,,,0.00,Rainwise IP-100,2013-03-11 21:15:00,
2013-03-11 17:20:00,44.6,37.0,29.43,ESE,112,1.0,6.0,74,0.00,,,0.00,Rainwise IP-100,2013-03-11 21:20:00,
2013-03-11 17:25:00,44.5,37.0,29.43,SW,225,0.0,4.0,74,0.00,,,0.00,Rainwise IP-100,2013-03-11 21:25:00,
2013-03-11 17:30:00,44.3,36.0,29.43,SSW,202,1.0,3.0,74,0.00,,,0.00,Rainwise IP-100,2013-03-11 21:30:00,
2013-03-11 17:35:00,44.2,36.0,29.43,ENE,67,1.0,5.0,74,0.00,,,0.00,Rainwise IP-100,2013-03-11 21:35:00,
2013-03-11 17:40:00,44.1,37.0,29.43,SSW,202,2.0,6.0,75,0.00,,,0.00,Rainwise IP-100,2013-03-11 21:40:00,
2013-03-11 17:45:00,43.9,37.0,29.42,South,180,1.0,4.0,75,0.00,,,0.00,Rainwise IP-100,2013-03-11 21:45:00,
2013-03-11 17:51:00,43.7,37.0,29.42,ESE,112,0.0,4.0,76,0.00,,,0.00,Rainwise IP-100,2013-03-11 21:51:00,
2013-03-11 17:56:00,43.6,37.0,29.42,SSW,202,0.0,3.0,76,0.00,,,0.00,Rainwise IP-100,2013-03-11 21:56:00,
2013-03-11 18:01:00,43.6,37.0,29.41,ENE,67,0.0,3.0,76,0.00,,,0.00,Rainwise IP-100,2013-03-11 22:01:00,
2013-03-11 18:06:00,43.6,37.0,29.41,SSW,202,5.0,5.0,76,0.00,,,0.00,Rainwise IP-100,2013-03-11 22:06:00,
2013-03-11 18:11:00,43.8,37.0,29.41,SW,225,2.0,7.0,76,0.00,,,0.00,Rainwise IP-100,2013-03-11 22:11:00,
2013-03-11 18:16:00,43.7,37.0,29.42,South,180,0.0,6.0,76,0.00,,,0.00,Rainwise IP-100,2013-03-11 22:16:00,
2013-03-11 18:21:00,43.2,37.0,29.42,SSE,157,1.0,5.0,77,0.00,,,0.00,Rainwise IP-100,2013-03-11 22:21:00,
2013-03-11 18:26:00,43.3,37.0,29.42,South,180,0.0,7.0,78,0.00,,,0.00,Rainwise IP-100,2013-03-11 22:26:00,
2013-03-11 18:31:00,43.3,37.0,29.42,SSW,202,2.0,5.0,78,0.00,,,0.00,Rainwise IP-100,2013-03-11 22:31:00,
2013-03-11 18:36:00,43.2,37.0,29.42,SE,135,5.0,6.0,78,0.00,,,0.00,Rainwise IP-100,2013-03-11 22:36:00,
2013-03-11 18:42:00,43.3,37.0,29.42,South,180,2.0,6.0,79,0.00,,,0.00,Rainwise IP-100,2013-03-11 22:42:00,
2013-03-11 18:47:00,43.2,37.0,29.42,South,180,0.0,6.0,78,0.00,,,0.00,Rainwise IP-100,2013-03-11 22:47:00,
2013-03-11 18:52:00,43.2,37.0,29.42,South,180,0.0,6.0,79,0.00,,,0.00,Rainwise IP-100,2013-03-11 22:52:00,
2013-03-11 18:57:00,43.1,37.0,29.42,ENE,67,0.0,7.0,79,0.00,,,0.00,Rainwise IP-100,2013-03-11 22:57:00,
2013-03-11 19:02:00,42.9,37.0,29.41,SE,135,0.0,4.0,79,0.00,,,0.00,Rainwise IP-100,2013-03-11 23:02:00,
2013-03-11 19:07:00,42.7,37.0,29.42,SSE,157,2.0,5.0,79,0.00,,,0.00,Rainwise IP-100,2013-03-11 23:07:00,
2013-03-11 19:12:00,42.5,38.0,29.42,South,180,2.0,4.0,81,0.00,,,0.00,Rainwise IP-100,2013-03-11 23:12:00,
2013-03-11 19:17:00,42.3,37.0,29.41,South,180,0.0,5.0,80,0.00,,,0.00,Rainwise IP-100,2013-03-11 23:17:00,
2013-03-11 19:22:00,42.1,37.0,29.41,South,180,0.0,3.0,81,0.00,,,0.00,Rainwise IP-100,2013-03-11 23:22:00,
2013-03-11 19:28:00,42.6,39.0,29.42,SSW,202,1.0,10.0,84,0.00,,,0.00,Rainwise IP-100,2013-03-11 23:28:00,
2013-03-11 19:33:00,42.8,38.0,29.41,South,180,3.0,5.0,81,0.00,,,0.00,Rainwise IP-100,2013-03-11 23:33:00,
2013-03-11 19:38:00,42.7,38.0,29.40,South,180,2.0,5.0,81,0.00,,,0.00,Rainwise IP-100,2013-03-11 23:38:00,
2013-03-11 19:43:00,42.8,38.0,29.41,South,180,0.0,5.0,82,0.00,,,0.00,Rainwise IP-100,2013-03-11 23:43:00,
2013-03-11 19:48:00,42.4,37.0,29.40,NNE,22,0.0,4.0,81,0.00,,,0.00,Rainwise IP-100,2013-03-11 23:48:00,
2013-03-11 19:53:00,42.3,37.0,29.41,SSE,157,3.0,6.0,81,0.00,,,0.00,Rainwise IP-100,2013-03-11 23:53:00,
2013-03-11 19:58:00,42.4,37.0,29.40,South,180,0.0,6.0,82,0.00,,,0.00,Rainwise IP-100,2013-03-11 23:58:00,
2013-03-11 20:03:00,42.3,37.0,29.41,SSE,157,3.0,6.0,81,0.00,,,0.00,Rainwise IP-100,2013-03-12 00:03:00,
2013-03-11 20:08:00,42.1,37.0,29.41,SSE,157,3.0,5.0,81,0.00,,,0.00,Rainwise IP-100,2013-03-12 00:08:00,
2013-03-11 20:14:00,41.7,37.0,29.41,SW,225,0.0,1.0,83,0.00,,,0.00,Rainwise IP-100,2013-03-12 00:14:00,
2013-03-11 20:19:00,41.4,36.0,29.41,ESE,112,0.0,2.0,82,0.00,,,0.00,Rainwise IP-100,2013-03-12 00:19:00,
2013-03-11 20:24:00,41.2,37.0,29.41,SE,135,0.0,3.0,83,0.00,,,0.00,Rainwise IP-100,2013-03-12 00:24:00,
2013-03-11 20:29:00,40.9,37.0,29.41,SSE,157,0.0,3.0,84,0.00,,,0.00,Rainwise IP-100,2013-03-12 00:29:00,
2013-03-11 20:34:00,41.1,37.0,29.41,South,180,1.0,6.0,85,0.00,,,0.00,Rainwise IP-100,2013-03-12 00:34:00,
2013-03-11 20:39:00,41.4,37.0,29.41,WNW,292,0.0,6.0,85,0.00,,,0.00,Rainwise IP-100,2013-03-12 00:39:00,
2013-03-11 20:44:00,41.6,38.0,29.41,SE,135,0.0,6.0,84,0.00,,,0.00,Rainwise IP-100,2013-03-12 00:44:00,
2013-03-11 20:49:00,41.9,38.0,29.41,SSE,157,1.0,6.0,84,0.00,,,0.00,Rainwise IP-100,2013-03-12 00:49:00,
2013-03-11 20:54:00,42.0,38.0,29.41,SE,135,4.0,6.0,84,0.00,,,0.00,Rainwise IP-100,2013-03-12 00:54:00,
2013-03-11 20:59:00,42.4,37.0,29.41,SE,135,3.0,6.0,83,0.00,,,0.00,Rainwise IP-100,2013-03-12 00:59:00,
2013-03-11 21:05:00,42.6,39.0,29.41,WSW,247,5.0,9.0,84,0.00,,,0.00,Rainwise IP-100,2013-03-12 01:05:00,
2013-03-11 21:10:00,42.9,39.0,29.41,WSW,247,4.0,10.0,84,0.00,,,0.00,Rainwise IP-100,2013-03-12 01:10:00,
2013-03-11 21:15:00,42.6,39.0,29.41,SSE,157,5.0,7.0,85,0.00,,,0.00,Rainwise IP-100,2013-03-12 01:15:00,
2013-03-11 21:20:00,42.6,39.0,29.41,South,180,4.0,7.0,86,0.00,,,0.00,Rainwise IP-100,2013-03-12 01:20:00,
2013-03-11 21:25:00,42.4,38.0,29.41,South,180,6.0,7.0,85,0.00,,,0.00,Rainwise IP-100,2013-03-12 01:25:00,
2013-03-11 21:30:00,42.5,39.0,29.40,SW,225,2.0,9.0,87,0.00,,,0.00,Rainwise IP-100,2013-03-12 01:30:00,
2013-03-11 21:35:00,42.5,39.0,29.41,SSE,157,6.0,7.0,87,0.00,,,0.00,Rainwise IP-100,2013-03-12 01:35:00,
2013-03-11 21:41:00,42.6,39.0,29.41,SSW,202,4.0,10.0,87,0.00,,,0.00,Rainwise IP-100,2013-03-12 01:41:00,
2013-03-11 21:46:00,42.5,40.0,29.41,SSW,202,4.0,8.0,88,0.00,,,0.00,Rainwise IP-100,2013-03-12 01:46:00,
2013-03-11 21:51:00,42.4,38.0,29.40,South,180,2.0,6.0,86,0.00,,,0.00,Rainwise IP-100,2013-03-12 01:51:00,
2013-03-11 21:56:00,42.5,40.0,29.40,SSW,202,4.0,8.0,88,0.00,,,0.00,Rainwise IP-100,2013-03-12 01:56:00,
2013-03-11 22:01:00,42.6,40.0,29.40,SSW,202,1.0,9.0,88,0.00,,,0.00,Rainwise IP-100,2013-03-12 02:01:00,
2013-03-11 22:07:00,42.4,39.0,29.40,South,180,5.0,7.0,88,0.00,,,0.00,Rainwise IP-100,2013-03-12 02:07:00,
2013-03-11 22:12:00,42.3,39.0,29.41,SE,135,6.0,8.0,88,0.00,,,0.00,Rainwise IP-100,2013-03-12 02:12:00,
2013-03-11 22:17:00,42.4,39.0,29.40,SSE,157,4.0,10.0,88,0.00,,,0.00,Rainwise IP-100,2013-03-12 02:17:00,
2013-03-11 22:22:00,42.5,40.0,29.40,SW,225,2.0,7.0,89,0.00,,,0.00,Rainwise IP-100,2013-03-12 02:22:00,
2013-03-11 22:27:00,42.6,40.0,29.40,SW,225,1.0,7.0,89,0.00,,,0.00,Rainwise IP-100,2013-03-12 02:27:00,
2013-03-11 22:32:00,42.3,39.0,29.40,South,180,2.0,6.0,88,0.00,,,0.00,Rainwise IP-100,2013-03-12 02:32:00,
2013-03-11 22:37:00,42.3,39.0,29.39,SSW,202,1.0,9.0,88,0.00,,,0.00,Rainwise IP-100,2013-03-12 02:37:00,
2013-03-11 22:43:00,42.3,39.0,29.40,ENE,67,0.0,7.0,89,0.00,,,0.00,Rainwise IP-100,2013-03-12 02:43:00,
2013-03-11 22:48:00,42.4,39.0,29.40,SSE,157,5.0,7.0,89,0.00,,,0.00,Rainwise IP-100,2013-03-12 02:48:00,
2013-03-11 22:53:00,42.5,40.0,29.40,SSW,202,6.0,10.0,90,0.00,,,0.00,Rainwise IP-100,2013-03-12 02:53:00,
2013-03-11 22:58:00,42.5,40.0,29.40,South,180,5.0,7.0,90,0.00,,,0.00,Rainwise IP-100,2013-03-12 02:58:00,
2013-03-11 23:03:00,42.5,40.0,29.40,SSW,202,6.0,9.0,90,0.00,,,0.00,Rainwise IP-100,2013-03-12 03:03:00,
2013-03-11 23:08:00,42.6,40.0,29.40,NW,315,1.0,7.0,90,0.00,,,0.00,Rainwise IP-100,2013-03-12 03:08:00,
2013-03-11 23:13:00,42.5,40.0,29.40,SSE,157,3.0,7.0,90,0.00,,,0.00,Rainwise IP-100,2013-03-12 03:13:00,
2013-03-11 23:18:00,42.6,40.0,29.40,WSW,247,6.0,9.0,90,0.00,,,0.00,Rainwise IP-100,2013-03-12 03:18:00,
2013-03-11 23:23:00,42.6,40.0,29.40,SSE,157,5.0,7.0,90,0.00,,,0.00,Rainwise IP-100,2013-03-12 03:23:00,
2013-03-11 23:28:00,42.8,40.0,29.41,South,180,4.0,9.0,89,0.00,,,0.00,Rainwise IP-100,2013-03-12 03:28:00,
2013-03-11 23:33:00,42.6,40.0,29.41,WNW,292,4.0,7.0,89,0.00,,,0.00,Rainwise IP-100,2013-03-12 03:33:00,
2013-03-11 23:39:00,42.7,40.0,29.41,East,90,5.0,7.0,90,0.00,,,0.00,Rainwise IP-100,2013-03-12 03:39:00,
2013-03-11 23:44:00,42.8,40.0,29.40,SSE,157,1.0,6.0,89,0.00,,,0.00,Rainwise IP-100,2013-03-12 03:44:00,
2013-03-11 23:49:00,42.7,40.0,29.40,SW,225,1.0,7.0,90,0.00,,,0.00,Rainwise IP-100,2013-03-12 03:49:00,
2013-03-11 23:54:00,42.8,40.0,29.40,SSE,157,4.0,7.0,89,0.00,,,0.00,Rainwise IP-100,2013-03-12 03:54:00,
2013-03-11 23:59:00,42.7,40.0,29.39,SSE,157,6.0,9.0,90,0.00,,,0.00,Rainwise IP-100,2013-03-12 03:59:00,